Voltar ao catálogo

TITAN 4B DEB

AtivoLEO
NORAD 40528·DEBRIS·🇺🇸 United States

Lançado Aug 17, 2000 de Vandenberg Space Force Base

Loading…

Próximas Passagens (próximas 24 horas)

TLE

AtualizadoSource: Space-Track

Época: Sep 14, 2026, 04:48 UTC

1 40528U 00047E   26257.20058112  .00000328  00000-0  39099-4 0  9998
2 40528  67.9956 333.5007 0060576 233.1718 155.5362 14.96040917625947

Acompanhe TITAN 4B DEB em tempo real com AllMySat

Download on the App Store